{"data":{"norad_id":59476,"intl_designator":"2024-068X","name":"STARLINK-31515","alt_names":[],"object_type":"PAYLOAD","status":"ACTIVE","operator":null,"country":"US","launch_date":"2024-04-10","launch_site_code":"AFETR","launch_vehicle":null,"mission":null,"orbit_class":"UNKNOWN","rcs_meters":null,"size_class":null,"mass_kg":null,"dimensions":null,"purposes":["comms"],"wikipedia_slug":null,"has_3d_model":false,"image_url":null,"decayed_at":null,"tle_current":{"epoch":"2026-09-21T07:55:14.525472Z","epoch_age_seconds":93445,"freshness":"FRESH","line1":"1 59476U 24068X   26264.33002923 -.00001034  00000+0 -28065-4 0  9997","line2":"2 59476  43.0037   9.6180 0001007 275.4463  84.6273 15.27577061138444","mean_motion":15.27577061,"eccentricity":0.0001007,"inclination_deg":43.0037,"raan_deg":9.618,"arg_perigee_deg":275.4463,"mean_anomaly_deg":84.6273,"bstar":-2.8065e-5,"rev_number":13844,"period_min":94.266930079281,"perigee_km":482.36697415099,"apogee_km":483.74881880314,"semimajor_km":6861.1948964771,"source":"CELESTRAK","updated_at":"2026-09-22T09:00:48.951584Z"}}}